Regional Weather Roundup
Issued by NWS

Home | Current Version | Previous Version | Graphics & Text | Print | Product List | Glossary Off
Versions: 1 2 3 4 5 6 7 8 9 10 11 12 13 14 15 16 17 18 19 20 21 22 23 24 25 26 27 28 29 30 31 32 33 34 35 36 37 38 39 40 41 42 43 44 45 46 47 48 49 50

000
ASUS43 KMKX 221911
RWRWI

WISCONSIN REGIONAL WEATHER ROUNDUP
NATIONAL WEATHER SERVICE MILWAUKEE/SULLIVAN WI
200 PM CDT TUE APR 22 2014

NOTE: "FAIR" INDICATES FEW OR NO CLOUDS BELOW 12,000 FEET WITH NO
SIGNIFICANT WEATHER AND/OR OBSTRUCTIONS TO VISIBILITY.

WIZ001-002-006>008-014>016-023>028-222000-
NORTHWEST WISCONSIN

CITY           SKY/WX    TMP DP  RH WIND       PRES   REMARKS
SUPERIOR ARPT  MOSUNNY   50  25  38 NW7       30.09F
ASHLAND        SUNNY     47  27  45 N8        30.09F
HAYWARD        SUNNY     50  22  33 NW8       30.08S
SIREN          MOSUNNY   50  20  30 N12G20    30.09
RICE LAKE      SUNNY     50  21  32 N12G17    30.09S
LADYSMITH      SUNNY     50  24  36 N15G23    30.06F
EAU CLAIRE     SUNNY     53  23  31 N14G21    30.06S
MENOMONIE      PTCLDY    53  21  29 N16G25    30.08R
NEW RICHMOND   MOSUNNY   53  29  39 NW21G26   30.09F
OSCEOLA        MOSUNNY   53  29  39 N15       30.13S
$$

WIZ003>005-009-010-017-018-222000-
NORTH CENTRAL WISCONSIN

CITY           SKY/WX    TMP DP  RH WIND       PRES   REMARKS
WOODRUFF       PTSUNNY   43  25  49 NW15G25   30.04S
RHINELANDER    CLOUDY    41  23  48 NW16      30.03S
EAGLE RIVER    CLOUDY    40  24  52 NW12G20   30.02S WCI  33
LAND O LAKES   CLOUDY    38  26  63 N10G18    30.03R WCI  31
PHILLIPS       MOSUNNY   44  24  44 NW15G26   30.04S
TOMAHAWK       MOSUNNY   44  24  44 N10G20    30.03S
MEDFORD        MOSUNNY   47  27  44 N13G21    30.02S
MERRILL        MOSUNNY   46  25  42 NW20G26   30.02S
$$

WIZ029-030-035-036-043>047-222000-
CENTRAL WISCONSIN

CITY           SKY/WX    TMP DP  RH WIND       PRES   REMARKS
WAUSAU         MOSUNNY   49  24  37 N14G22    30.00R
MOSINEE        MOSUNNY   48  28  46 NW18G24   30.01S
MARSHFIELD     MOSUNNY   51  29  42 NW18G24   30.00F
STEVENS POINT  MOSUNNY   48  24  37 W10G22    30.00S
WAUPACA        SUNNY     54  23  30 NW14G28   29.99F
WAUTOMA        MOSUNNY   53  25  34 NW18G26   30.01R
WISC RAPIDS    MOSUNNY   54  26  34 NW15G28   30.02S
CAMP DOUGLAS   PTSUNNY   55  25  30 NW9G22    30.01F
$$

WIZ011>013-019>022-031-037>040-048>050-222000-
NORTHEAST WISCONSIN

CITY           SKY/WX    TMP DP  RH WIND       PRES   REMARKS
ANTIGO         PTSUNNY   42  27  56 N17G24    30.01R
STURGEON BAY   CLOUDY    45  27  49 NW17G24   29.97R
GREEN BAY      PTSUNNY   49  31  49 N15G26    29.99R
MANITOWOC      CLOUDY    48  29  47 NW20G26   29.97R
APPLETON       PTSUNNY   48  27  43 N21G28    29.99
CLINTONVILLE   MOSUNNY   48  25  40 NW16G23   29.99S
OSHKOSH        SUNNY     51  27  39 NW18G26   29.97S
$$

WIZ032>034-041-042-053>061-222000-
SOUTHWEST WISCONSIN

CITY           SKY/WX    TMP DP  RH WIND       PRES   REMARKS
LA CROSSE      SUNNY     58  26  29 NW16      30.04F
SPARTA         SUNNY     55  23  28 NW12G20   30.04F
VIROQUA        FAIR      53  29  40 N14       30.03F
BOSCOBEL       SUNNY     58  24  27 NW13G21   30.03F
PRAIRIE DU CHI SUNNY     56  25  30 NW9G17    30.04F
PLATTEVILLE    FAIR      56  27  32 NW13G22   30.02F
$$

WIZ056-057-062-063-064-067-068-222000-
SOUTH CENTRAL WISCONSIN

CITY           SKY/WX    TMP DP  RH WIND       PRES   REMARKS
BARABOO/DELLS  SUNNY     53  25  33 NW16G24   30.00S
LONE ROCK      SUNNY     56  29  35 NW13G22   30.01F
WATERTOWN      SUNNY     54  31  42 NW12G21   29.98R
MADISON        MOSUNNY   56  26  31 NW15G21   29.99S
MIDDLETON      FAIR      57  25  29 NW12G38   30.00S
MONROE         SUNNY     56  24  29 W13G23    29.99S
JANESVILLE     SUNNY     57  25  28 NW12G21   29.97F
$$

WIZ051-052-058>065-066-070>072-222000-
SOUTHEAST WISCONSIN

CITY           SKY/WX    TMP DP  RH WIND       PRES   REMARKS
MILWAUKEE      MOSUNNY   55  30  38 NW21G26   29.96S
WAUKESHA       MOSUNNY   52  30  43 NW12      29.97F
MILWAUKEE/TIMM SUNNY     54  28  37 NW18G25   29.96S
RACINE         MOSUNNY   52  32  46 NE13      29.97S
BURLINGTON     SUNNY     54  31  41 NW16      29.96S
KENOSHA        MOSUNNY   55  31  39 NW8G17    29.95F
FOND DU LAC    MOSUNNY   54  30  40 NW18G24   29.97S
SHEBOYGAN      PTSUNNY   51  29  42 NW18G25   29.97R
WEST BEND      PTSUNNY   52  28  40 NW10G22   29.96S
JUNEAU         SUNNY     52  21  30 NW14G23   29.98S
$$

LSZ147-162-222000-
LAKE SUPERIOR

STATION/POSITION TIME  TEMP    WIND        PRES    WAVE
                       AIR SEA DIR/SP/G            HT/PER
                 (UTC) (F)     (DEG/KT/KT) (MB)    (FT/S)
DEVILS ISLAND    1900   41     240/  7/  9 1019.6F
PORT WING        1800   42     290/  5/  6 1019.6S
SAXON HARBOR     1840             CALM     1019.3F
$$

LMZ867-665-643>646-222000-
LAKE MICHIGAN

STATION/POSITION TIME  TEMP    WIND        PRES    WAVE
                       AIR SEA DIR/SP/G            HT/PER
                 (UTC) (F)     (DEG/KT/KT) (MB)    (FT/S)
NORTHPORT PIER   1800   36     320/ 11/ 15 1013.9S
SISTER BAY       1809   40     350/ 13/ 16   N/A
KEWAUNEE LAKESHO 1800   46     320/ 15/ 21 1014.8R
SHEBOYGAN LAKESH 1900   49     320/ 18/ 21 1015.1R
PORT WASHINGTON  1800   51     310/ 11/ 17 1014.9
MILWAUKEE LAKESH 1800   50     320/ 11/ 16   N/A
KENOSHA   LAKESH 1800   43     100/  9/ 11   N/A
$$

TC  - TEMPERATURE IN CELSIUS
VSB - VISIBILITY IN STATUTE MILES
WCI - WIND CHILL INDEX
HX  - HEAT INDEX




USA.gov is the U.S. government's official web portal to all federal, state and local government web resources and services.